Wind_Speed
51 51 53 59 64 65 64 66 64 56 52 50 48 46 45 43 42 40 40 42 41 38 39 40 41 42 45 47 48 48 46 45 44 43 42 42 41 43 47 50 51 50 48 46 44 41 39 36 34 33 32 31 31 32 32 33 34 34 34 33 32 31 30 29 28 27 28 28 29 30 31 31 30 28 28 29 28 28 27 26 25 24 24 23 23
43 46 48 52 60 66 66 65 64 58 53 52 50 48 47 45 44 43 43 44 45 42 40 42 44 42 41 44 48 50 49 48 48 47 45 42 40 39 41 44 48 49 46 43 40 37 36 35 35 35 35 35 35 35 35 36 36 37 37 35 33 32 31 29 28 28 29 30 30 31 32 32 31 29 29 30 30 29 28 27 27 27 27 28 27
36 40 44 47 52 62 67 67 65 61 56 53 51 50 48 46 45 46 45 45 48 47 43 43 46 46 43 42 45 49 51 50 49 48 46 44 41 40 38 38 41 44 42 37 34 33 32 32 33 34 35 35 36 37 38 39 39 39 39 37 35 33 31 30 29 29 30 31 32 32 33 33 32 30 30 31 32 31 30 28 28 28 29 30 30
33 35 40 43 47 55 64 68 66 63 59 55 53 51 49 47 47 48 47 46 48 50 48 45 47 47 45 43 43 47 52 52 49 47 47 45 43 42 39 34 33 36 36 33 31 30 29 30 31 33 34 34 35 37 40 42 42 42 41 38 35 33 31 30 30 31 31 32 32 33 33 33 33 32 31 32 33 33 33 32 31 30 30 31 31
29 32 35 40 43 48 58 66 66 62 59 57 55 53 50 48 48 49 49 48 48 51 51 48 48 49 47 44 43 45 49 52 50 47 46 45 45 44 42 37 32 31 31 32 32 31 30 32 34 35 36 37 37 38 40 42 43 42 40 37 35 33 32 31 32 33 33 33 33 34 33 33 34 34 33 34 34 34 35 36 35 33 33 33 33
27 29 31 35 40 44 52 61 63 60 59 57 55 54 52 50 49 50 50 49 49 51 52 50 48 49 48 46 45 44 45 48 48 46 46 45 46 47 46 43 39 35 35 35 34 33 35 36 38 39 39 39 39 38 38 39 40 39 37 36 34 34 33 33 34 34 34 35 34 34 33 33 34 35 36 35 35 35 37 39 39 38 37 36 36
27 27 28 31 36 40 46 55 60 58 58 59 56 54 53 51 50 50 50 49 48 50 53 53 50 48 47 47 47 45 44 44 45 45 45 47 49 49 48 47 45 42 41 39 39 40 41 40 41 42 43 41 39 37 35 35 35 35 35 34 34 34 33 33 35 35 36 36 34 34 34 33 34 36 37 36 35 37 38 40 41 41 41 41 40
28 27 26 28 32 37 43 50 55 56 57 60 59 55 54 53 52 51 50 49 48 48 50 52 52 50 47 47 48 48 46 46 47 46 46 48 51 51 50 50 49 47 45 43 43 44 43 43 44 45 46 44 42 40 38 36 36 36 36 36 35 34 33 33 34 36 36 35 34 35 34 34 36 37 38 37 38 39 40 41 42 43 44 44 45
29 27 26 26 29 34 40 46 51 54 56 60 61 58 56 55 54 53 52 50 48 48 49 50 51 51 49 47 48 50 50 50 50 50 49 49 52 53 52 53 54 54 52 49 48 47 45 46 48 48 48 47 46 45 43 41 40 41 41 41 40 38 35 34 35 36 36 35 35 36 36 37 38 38 37 38 40 41 42 42 43 45 45 46 47
30 28 27 27 28 32 37 43 49 53 56 60 63 61 58 56 55 55 55 54 50 48 48 49 49 50 49 47 47 49 52 53 53 53 51 50 52 53 52 54 57 58 58 56 55 54 51 50 51 51 50 50 50 50 49 47 46 45 45 44 42 40 39 38 37 37 37 37 37 39 40 40 39 38 38 39 40 41 43 44 45 46 47 48 49
31 28 27 27 28 30 35 41 48 53 54 57 61 63 61 58 55 54 55 57 55 51 49 49 49 49 49 49 49 50 52 54 54 54 53 52 53 53 53 55 57 58 58 58 58 58 57 56 56 55 55 54 54 54 53 52 51 49 46 44 42 42 42 43 42 39 38 39 39 42 44 42 39 39 40 40 40 42 44 46 48 49 50 50 51
33 30 28 28 30 31 34 39 46 52 55 55 58 61 63 61 56 54 54 56 57 55 52 51 51 50 50 52 53 53 54 55 56 56 56 55 55 55 55 57 57 57 57 57 57 58 58 59 59 58 57 56 55 54 53 54 53 49 47 45 45 44 44 45 45 42 41 41 42 44 45 42 40 42 42 41 41 43 45 47 50 51 53 53 53
36 34 31 30 31 32 34 38 44 50 54 56 57 60 63 64 61 57 55 55 57 58 57 55 54 53 52 53 54 54 54 55 56 57 58 58 59 58 59 60 59 58 57 56 56 57 57 58 58 57 57 56 55 54 53 54 52 50 48 48 48 47 47 48 48 47 46 45 44 45 46 43 43 45 45 43 43 45 47 49 51 52 54 55 55
40 38 36 34 33 34 35 38 43 47 51 54 57 60 63 64 64 61 58 56 56 58 58 58 58 57 56 56 56 56 56 56 56 56 58 59 60 60 61 61 60 57 55 54 54 55 56 56 57 57 58 57 56 55 55 54 53 51 51 51 51 51 51 51 50 50 49 47 46 46 45 45 45 47 47 47 47 50 51 51 51 53 55 56 57
43 42 41 39 37 36 37 38 42 46 50 53 56 59 62 64 65 65 63 60 57 57 57 58 59 59 59 59 58 57 58 59 58 58 58 59 59 59 60 60 58 56 54 54 54 55 56 57 58 58 58 59 58 57 56 55 55 54 53 53 53 53 54 54 53 52 50 48 46 45 45 46 48 50 52 52 53 54 54 52 52 54 55 56 58
45 45 44 43 42 40 40 40 42 44 49 53 55 57 60 63 66 66 65 63 60 58 58 58 58 58 60 62 60 58 57 58 59 60 60 59 59 58 58 58 58 56 55 55 56 56 56 57 58 58 59 60 60 59 58 57 56 55 55 55 55 55 56 56 55 53 51 49 49 49 50 51 52 53 54 55 56 56 55 54 54 55 56 58 59
46 47 47 47 46 45 44 43 43 44 46 50 54 57 59 62 65 67 67 65 62 60 59 59 58 58 59 62 63 61 60 58 58 59 61 62 62 61 59 58 58 57 56 57 57 57 57 57 58 59 60 60 60 60 59 58 57 56 57 57 57 57 57 57 56 55 54 54 55 55 55 55 55 56 56 57 57 58 57 56 57 58 58 59 60
46 48 49 49 50 50 49 48 47 46 45 46 50 54 58 60 62 64 66 66 64 62 60 60 60 59 60 62 63 64 64 63 61 59 60 62 64 65 65 63 61 60 58 58 58 59 59 59 59 60 61 62 63 62 61 60 59 58 58 59 59 59 58 58 58 58 58 59 59 59 59 59 59 59 59 59 59 60 60 59 60 61 61 61 62
43 46 50 51 52 53 53 53 52 51 49 48 47 50 54 58 59 61 62 63 63 62 61 60 61 61 62 63 64 65 65 66 65 63 62 63 64 66 67 67 67 65 63 61 61 61 62 62 63 63 64 65 65 65 63 62 61 61 60 60 60 60 60 60 61 61 61 61 62 62 63 63 63 64 64 63 62 63 63 63 63 63 63 63 64
40 44 47 51 53 55 56 57 57 55 54 53 51 49 51 55 57 59 60 60 60 60 60 60 60 61 62 63 64 64 64 64 64 64 63 64 65 66 67 67 68 68 68 67 66 67 67 67 67 67 67 66 65 65 65 64 64 63 63 63 63 63 62 63 63 64 65 65 65 66 67 67 68 68 67 67 66 67 67 67 67 66 65 65 65
41 42 45 48 51 54 57 59 60 60 59 58 57 54 52 52 55 58 61 60 60 60 60 61 61 61 61 61 62 63 63 62 63 63 63 65 66 65 64 66 66 66 66 66 67 67 67 68 68 68 67 66 65 65 66 66 66 66 66 66 66 66 66 66 67 67 68 68 69 69 70 71 71 71 71 70 71 71 70 69 68 67 66 66 66
45 44 45 46 48 51 55 59 62 63 63 62 62 60 57 54 54 56 59 61 61 61 61 61 62 62 61 62 62 62 62 62 64 64 63 65 66 64 63 65 65 64 64 65 66 67 68 68 68 68 68 67 66 66 67 67 68 68 68 68 68 69 69 69 70 70 71 71 72 72 73 74 74 74 74 74 73 73 71 70 68 67 66 67 67
49 48 48 47 48 49 52 56 60 63 65 66 65 65 63 60 57 56 57 59 61 62 61 62 63 64 64 64 65 65 64 64 65 65 64 64 64 63 64 66 65 64 66 67 68 69 69 70 70 69 69 69 68 67 67 68 69 70 70 71 71 72 73 73 73 73 73 74 75 75 76 77 77 77 76 75 74 72 70 69 68 67 67 68 69
54 53 52 51 51 51 52 54 57 61 65 67 68 68 67 66 63 60 57 57 58 60 61 62 64 66 67 67 66 66 66 65 66 66 67 66 65 63 64 66 66 67 69 69 70 71 72 72 73 72 72 72 71 71 70 71 71 73 73 74 74 74 74 74 74 74 75 76 77 78 79 80 80 78 77 74 72 70 69 69 69 69 70 72 74
59 57 57 56 55 54 54 54 56 59 62 66 69 70 70 70 69 67 63 60 58 59 60 61 64 67 69 69 69 68 67 66 66 67 68 67 66 65 65 65 66 67 69 69 69 71 71 70 71 71 71 72 71 70 69 69 70 72 73 74 74 74 74 75 75 75 77 78 79 79 79 79 78 77 74 72 71 70 71 71 72 74 76 78 81
63 62 61 60 59 58 57 56 57 58 61 63 67 70 71 72 72 72 70 67 64 62 62 63 65 66 67 69 71 72 71 69 69 68 68 67 66 65 66 65 65 66 68 67 67 68 69 69 69 68 68 68 69 68 69 70 72 74 75 76 77 77 77 78 78 78 78 77 77 76 76 76 75 74 73 72 72 73 75 76 78 80 83 85 86
67 65 64 63 62 61 61 59 59 59 61 63 65 68 70 73 74 75 75 73 71 69 68 68 68 67 66 67 70 73 75 75 75 73 72 70 70 69 70 70 69 70 72 71 70 71 72 73 73 72 70 70 71 71 71 72 75 78 79 80 80 80 80 80 78 77 75 73 72 73 74 74 75 75 75 75 76 78 81 83 85 87 88 88 88
70 69 67 66 66 65 64 63 62 62 62 63 65 66 68 71 73 75 77 77 77 76 75 75 74 72 70 68 69 71 74 76 78 79 78 78 78 77 77 77 76 76 79 79 78 79 79 79 78 78 76 75 75 75 74 75 77 80 81 82 82 81 80 79 77 75 73 73 74 75 77 78 79 79 79 80 82 84 87 89 90 91 91 91 90
71 70 70 69 69 68 67 66 66 65 65 64 65 66 68 70 72 74 76 78 80 81 81 80 79 78 76 75 73 73 73 75 77 79 80 81 82 82 82 81 81 80 81 82 82 82 83 82 80 79 78 77 77 78 79 80 81 83 83 84 84 82 81 79 78 78 77 77 79 81 82 83 83 83 84 86 87 89 90 91 92 92 93 92 92
70 70 70 70 70 70 70 69 69 69 68 67 66 67 68 70 71 73 75 77 79 82 84 85 84 83 81 80 79 78 78 77 77 78 79 81 82 83 84 84 84 83 82 82 81 81 82 81 80 79 79 79 79 80 82 84 85 86 86 86 86 85 83 82 81 82 82 83 84 85 87 87 87 87 88 89 90 91 92 93 93 94 93 93 93
69 69 69 69 69 69 70 70 70 70 71 70 70 69 70 70 72 73 74 76 77 79 82 84 86 87 85 84 84 83 83 82 81 81 81 82 83 84 85 85 85 84 84 83 82 82 82 83 82 81 81 81 81 82 84 85 87 88 88 87 86 85 84 84 84 85 85 86 87 88 89 89 89 89 89 90 91 92 93 94 95 95 95 95 95
65 66 66 66 66 67 68 69 70 70 71 72 72 72 72 72 72 73 74 75 77 78 79 82 84 87 88 88 87 86 86 86 85 84 85 85 85 86 87 87 88 87 87 86 85 85 86 86 86 85 84 83 83 84 85 86 87 87 87 86 85 85 85 85 86 86 87 89 90 90 91 91 91 91 92 92 93 94 95 96 96 97 97 98 99
59 60 60 61 62 63 65 66 67 68 69 70 71 72 72 72 73 73 75 76 77 78 79 80 81 84 86 88 89 89 88 88 88 87 87 87 88 88 88 89 89 90 90 89 89 89 89 89 89 88 87 86 86 86 86 87 86 86 85 85 85 85 86 87 87 88 90 91 92 92 93 93 93 93 94 95 95 96 97 97 98 99 101 102 103
53 54 55 56 57 59 60 62 64 65 66 67 69 70 71 72 73 74 75 77 78 78 78 79 80 82 83 85 87 89 89 90 90 90 90 90 90 90 91 91 91 92 92 92 92 92 92 91 91 91 91 91 90 90 89 88 87 86 85 85 86 87 88 89 89 90 92 93 93 94 95 95 95 96 96 96 97 98 99 100 102 103 105 106 107
50 51 51 52 54 55 57 58 60 62 63 64 65 67 69 70 70 72 74 76 78 79 79 80 81 82 83 84 86 87 88 89 90 91 92 92 92 92 92 93 93 93 94 94 95 95 95 94 94 94 94 94 94 93 93 92 90 89 88 88 89 89 90 91 92 93 94 95 96 96 97 97 97 98 98 99 100 101 103 105 106 107 108 109 110
48 49 49 50 51 52 53 55 57 59 61 62 63 64 66 67 68 69 71 74 76 78 80 81 82 83 84 84 85 86 88 89 91 92 93 94 94 94 94 95 95 96 96 97 97 97 97 97 97 97 97 97 97 96 96 95 94 93 92 93 93 94 94 95 96 97 97 98 99 99 99 100 100 101 102 103 105 106 107 108 109 110 110 111 111
48 47 48 48 49 51 52 52 54 56 58 60 62 63 65 66 67 67 69 71 74 77 79 80 82 84 85 86 86 87 88 89 91 93 94 95 95 96 96 96 97 98 98 99 99 99 99 99 100 99 99 99 99 98 98 97 96 95 95 96 97 98 99 99 100 101 101 101 102 102 102 102 103 104 105 107 108 109 110 110 111 111 111 112 112
49 48 47 47 47 48 50 51 52 53 55 57 60 62 64 66 67 67 68 69 71 74 77 79 81 83 85 87 88 88 88 89 91 93 94 96 97 97 97 98 98 99 100 101 101 101 101 102 102 102 101 101 100 100 100 99 99 99 99 99 100 101 102 102 103 103 104 104 104 104 105 105 106 107 108 109 110 111 111 112 112 113 113 114 114
47 48 48 47 47 46 48 49 51 52 53 55 57 59 62 65 67 68 69 69 70 72 74 77 79 81 83 85 87 89 89 90 91 92 94 96 97 98 99 99 100 100 101 102 103 103 103 103 104 104 104 104 103 103 103 102 102 102 102 102 103 104 104 105 105 106 106 107 107 108 108 109 110 110 111 112 112 113 113 114 114 115 115 115 116
45 46 46 46 46 46 46 47 48 50 52 54 56 57 59 62 64 67 69 70 71 72 73 75 77 79 82 84 86 88 90 91 92 93 94 95 97 98 99 100 100 101 102 103 104 105 105 105 105 106 106 107 107 106 106 105 104 103 103 103 104 105 106 107 108 108 109 109 110 110 111 111 112 112 113 113 114 114 115 115 116 116 117 117 118
44 44 45 45 45 45 45 45 46 47 49 52 55 57 58 60 61 63 66 68 70 72 73 74 75 77 79 82 85 87 89 91 92 94 95 96 96 97 98 99 100 101 102 103 105 106 107 107 107 106 106 105 106 106 107 107 107 107 107 107 107 108 108 109 110 110 111 111 111 112 112 113 113 114 115 115 116 116 117 117 118 118 119 120 120
42 43 44 44 45 45 45 44 44 44 46 49 52 55 57 59 60 62 63 65 68 70 72 74 75 76 78 80 82 85 88 90 92 93 95 96 97 98 98 99 100 101 102 103 104 105 107 108 109 110 109 108 107 106 105 106 106 107 108 109 110 110 111 112 112 113 113 113 114 114 115 115 116 116 117 117 118 118 118 119 119 120 120 121 122
41 42 42 43 44 44 45 45 45 44 44 45 48 51 54 56 58 60 62 64 66 67 70 72 74 76 77 79 81 83 86 88 91 93 95 96 96 97 98 99 101 102 103 103 104 104 105 107 109 111 112 112 113 112 111 110 109 109 108 108 109 110 110 111 112 113 114 114 115 115 116 116 117 117 117 118 118 119 119 120 121 122 123 124 125
39 40 41 41 42 43 44 44 45 45 44 44 44 47 49 52 55 58 60 63 65 66 68 69 71 73 75 77 80 82 84 86 89 92 95 96 97 97 98 99 100 102 103 104 105 105 106 106 107 109 110 111 113 114 115 116 116 115 115 114 114 113 113 114 114 114 115 116 116 117 117 118 118 119 119 120 121 122 123 124 125 126 126 127 127
39 39 39 40 41 41 42 43 44 44 44 45 44 45 46 48 50 53 57 60 62 65 66 68 69 70 72 74 77 80 83 85 87 89 92 95 97 98 99 99 100 101 102 104 105 107 107 108 108 108 109 110 111 112 113 114 115 116 117 118 118 119 119 119 119 120 120 120 121 121 121 122 122 123 123 124 125 125 126 126 126 127 127 127 127
41 40 39 39 40 40 41 42 43 43 43 44 44 45 45 45 47 49 52 56 59 62 64 66 68 69 70 71 73 76 79 82 84 87 90 93 95 97 99 100 101 102 103 103 104 106 107 109 110 110 110 111 111 111 111 112 113 114 115 116 117 118 119 120 121 121 122 122 122 123 123 124 124 124 125 125 125 126 126 126 126 126 126 125 125
41 41 40 39 39 39 40 41 42 43 43 43 43 44 44 45 45 46 48 52 55 58 61 63 65 67 68 69 70 72 74 77 80 83 86 89 92 95 97 99 101 103 104 104 105 106 106 108 109 111 112 112 113 113 113 113 114 114 114 115 116 117 117 118 119 119 120 121 121 122 123 123 124 124 124 124 125 125 125 125 124 124 124 123 122
41 41 41 39 38 38 39 39 40 41 42 43 43 43 43 43 44 45 47 48 51 53 56 59 62 64 66 67 68 70 71 73 75 78 81 84 87 91 93 96 98 101 102 104 105 106 107 108 108 109 110 111 112 113 114 115 115 116 116 117 117 118 118 119 119 120 120 121 121 122 122 123 123 123 123 124 124 124 123 123 122 121 121 120 119
40 40 40 40 39 38 37 38 39 39 40 41 42 43 43 42 42 43 45 47 48 49 51 54 57 60 62 65 66 68 69 71 72 74 76 78 81 85 88 91 94 97 99 101 103 105 106 107 108 109 110 110 111 112 113 114 115 115 116 117 118 118 119 119 120 120 121 121 121 121 121 122 121 121 121 121 121 120 120 119 119 118 118 117 117
40 40 39 39 39 38 37 37 37 38 39 39 40 40 41 42 41 42 43 45 46 47 48 49 52 55 58 61 63 65 67 69 70 72 73 75 77 79 82 85 88 91 93 96 99 101 103 105 107 108 109 110 111 112 112 113 113 114 115 115 116 116 117 118 118 118 119 119 119 119 119 118 118 118 118 118 118 118 118 117 117 117 116 115 114
40 40 39 38 38 38 37 37 37 37 37 38 38 39 39 40 40 41 42 43 44 44 45 46 48 50 53 56 59 61 63 65 68 69 71 73 74 76 78 80 83 85 87 89 92 95 97 100 102 104 106 108 110 111 112 113 113 114 114 115 115 116 116 116 117 117 117 117 117 117 117 117 117 117 117 117 117 117 116 116 115 114 112 110 108
Wind_Direction
265 260 251 239 231 229 230 233 236 237 235 235 234 230 227 227 228 228 226 227 231 233 233 233 235 236 237 238 239 240 239 239 241 244 249 255 257 257 257 257 257 257 259 262 265 267 268 268 268 267 264 261 261 261 263 264 266 271 276 282 286 283 279 279 280 283 288 290 292 295 298 300 299 296 294 294 297 300 299 297 296 297 299 300 302
264 258 252 243 233 227 226 228 232 235 235 233 232 230 227 226 228 229 227 226 229 232 233 233 233 235 237 238 238 238 239 238 241 244 249 254 258 260 263 264 260 258 259 261 262 263 265 267 267 267 265 263 262 263 264 265 268 273 278 282 285 281 277 277 278 283 289 290 291 294 296 297 297 295 292 290 291 294 298 298 296 296 297 298 300
265 256 251 245 236 229 225 224 227 231 233 232 230 229 227 226 226 228 229 229 229 231 233 234 235 234 236 237 236 235 235 237 240 243 247 252 256 259 265 269 264 259 258 259 260 263 265 268 271 272 272 272 271 269 268 269 271 276 280 283 283 278 275 276 278 283 288 290 291 292 293 295 296 293 290 288 287 289 293 297 296 295 295 297 300
266 257 249 245 238 230 226 224 224 227 230 230 229 228 228 227 226 227 231 233 233 233 234 236 237 235 235 237 237 235 235 236 240 243 244 247 251 255 260 266 266 260 257 257 259 261 264 269 275 277 278 280 280 277 273 272 274 278 281 282 279 275 273 275 278 281 285 287 289 289 290 292 293 292 288 286 286 287 289 291 293 294 295 296 298
267 259 250 244 239 232 226 224 225 225 227 228 227 226 228 229 228 228 232 237 237 234 235 238 240 239 239 240 240 239 237 237 240 244 244 244 245 249 253 258 262 260 256 255 256 258 262 270 276 278 280 282 282 280 277 274 275 278 279 278 274 269 269 273 277 280 282 284 285 285 287 290 291 291 288 285 285 286 286 287 289 293 295 297 298
271 262 253 246 240 233 226 224 225 225 225 226 224 224 226 227 228 228 231 235 237 234 232 235 239 242 243 243 242 242 240 238 239 242 244 242 242 244 247 251 256 259 258 257 258 258 262 269 274 276 279 282 282 281 279 277 277 277 277 274 270 268 270 274 277 279 281 281 282 283 286 288 290 291 289 286 284 284 283 285 288 291 293 296 298
276 266 256 247 241 234 227 224 224 224 224 223 221 222 223 224 226 228 229 232 235 235 232 233 238 242 243 243 242 241 241 240 240 242 243 242 241 243 244 246 252 257 259 259 260 261 263 268 272 276 280 281 279 279 280 281 280 277 275 272 270 270 273 275 277 278 279 280 280 282 284 287 288 289 288 286 283 281 282 285 288 290 291 293 295
276 270 261 250 241 234 227 224 223 222 223 222 220 220 221 222 224 228 229 230 233 235 235 236 238 241 243 243 241 240 241 241 242 244 244 243 241 242 242 244 248 253 256 259 261 263 265 268 271 275 278 277 276 277 280 282 280 278 275 272 271 273 275 277 279 279 278 278 280 282 284 286 286 286 287 287 283 281 283 286 288 289 289 291 292
272 270 263 254 244 234 228 223 220 219 221 222 221 220 221 221 223 227 230 230 231 234 236 237 239 243 245 244 241 240 240 241 242 244 245 245 244 243 243 244 247 250 253 257 261 263 266 268 270 273 274 274 273 275 278 281 281 279 277 274 273 273 274 277 281 280 277 276 279 283 285 285 285 287 289 290 287 284 285 286 286 287 288 290 292
267 267 263 256 247 237 229 222 217 215 219 221 221 221 221 222 224 227 230 231 231 232 234 238 241 243 245 245 243 242 242 242 242 243 246 247 248 248 247 247 248 250 253 257 260 261 263 266 268 269 270 271 272 274 277 280 282 281 278 275 274 274 275 279 282 281 277 276 281 285 285 285 287 289 292 293 291 288 286 286 286 287 289 290 291
260 260 258 255 250 241 232 223 217 215 218 221 221 221 222 223 225 227 230 232 233 233 235 239 240 241 243 243 242 242 242 243 243 243 245 248 250 251 251 251 252 253 255 258 259 260 262 264 266 268 269 270 272 274 276 278 280 279 276 273 273 275 278 280 283 282 277 277 283 284 283 286 289 291 292 294 294 291 288 288 288 288 289 290 290
253 251 250 250 249 243 235 227 221 218 219 221 223 223 223 223 225 227 230 232 233 233 235 236 236 236 239 240 240 240 242 243 243 243 245 248 250 252 253 254 255 256 258 260 261 261 262 264 267 269 270 271 273 274 274 276 278 277 273 271 272 275 278 281 284 284 280 280 284 282 282 286 289 291 292 293 293 292 291 291 289 288 288 289 290
250 246 242 242 245 243 238 232 225 222 221 223 224 223 223 224 225 227 229 231 232 232 233 234 233 234 237 238 237 238 240 242 243 244 245 247 250 252 254 255 256 258 260 261 262 263 264 265 266 267 269 271 272 273 273 275 276 274 272 272 273 275 278 280 282 283 282 282 283 282 283 286 287 289 291 290 291 292 293 293 291 289 288 288 290
248 246 241 237 238 240 238 235 230 226 224 224 225 225 224 224 225 227 228 230 231 231 232 232 233 234 236 239 238 238 240 243 244 245 246 247 249 251 253 255 256 258 259 259 260 261 263 264 265 266 268 270 270 271 272 273 274 273 272 273 273 274 277 279 280 281 281 282 281 281 282 283 284 286 288 288 289 292 294 295 293 291 290 290 290
247 246 243 237 233 234 235 235 233 231 228 226 226 226 226 225 226 227 229 230 230 231 231 232 233 235 237 240 241 242 242 244 245 246 248 249 249 251 253 254 255 256 257 257 258 259 260 262 264 265 267 268 269 270 271 271 272 272 272 273 274 274 276 278 279 280 280 280 279 279 280 282 283 284 286 287 288 291 293 294 293 292 291 291 291
247 246 244 241 235 231 231 232 232 233 232 230 228 227 227 227 228 228 230 231 231 231 231 232 233 236 237 239 242 242 242 244 245 245 247 250 252 252 254 255 256 256 257 257 257 258 260 261 263 265 266 267 268 269 271 271 272 272 273 274 275 275 276 277 278 278 278 278 278 278 279 281 282 283 285 286 287 289 291 292 291 291 291 291 291
249 246 245 243 239 233 230 229 229 230 233 233 231 230 229 229 230 230 231 232 233 233 233 233 234 236 238 240 242 242 242 243 245 244 245 248 251 253 254 255 256 256 256 257 258 258 259 260 262 264 265 266 268 269 271 272 272 273 274 275 275 275 275 276 276 276 277 278 278 280 281 282 283 283 284 285 286 288 289 289 289 290 290 290 290
249 247 245 244 242 238 233 229 227 227 229 232 233 232 231 231 231 232 233 234 234 235 235 235 235 237 239 241 242 243 243 244 245 244 244 246 248 250 252 254 255 256 256 257 259 260 260 260 261 262 264 266 268 269 271 272 273 273 274 274 274 274 275 275 275 276 277 278 280 281 281 282 283 284 285 285 285 287 288 289 289 290 289 289 288
251 249 246 244 243 242 239 234 229 227 227 228 230 232 233 233 232 233 234 235 235 235 235 236 236 237 240 241 243 244 245 246 246 245 245 246 247 248 250 252 254 255 255 257 259 261 262 263 262 263 265 267 269 270 271 272 273 274 274 274 274 274 274 275 275 276 277 278 279 280 281 282 283 284 285 286 286 286 288 289 289 289 289 288 288
253 250 248 245 243 243 242 239 235 230 228 228 228 229 231 232 232 232 232 233 234 233 233 235 236 237 239 242 243 244 246 247 247 246 247 248 249 250 252 254 255 255 255 256 258 260 262 264 265 266 267 268 269 271 272 273 273 274 274 274 274 274 275 274 275 276 277 278 279 280 281 282 284 284 285 286 287 287 288 289 289 289 288 287 287
253 252 250 247 245 243 242 242 240 236 232 229 228 228 228 229 231 232 232 232 232 231 231 233 235 237 239 242 243 244 244 246 247 247 248 249 250 251 252 254 254 255 256 256 257 258 260 262 264 265 266 267 268 269 271 272 272 273 273 273 273 274 274 274 274 275 276 278 278 280 281 282 283 284 285 286 287 288 288 288 288 287 287 286 286
253 253 251 250 247 245 243 242 242 241 237 234 232 230 228 227 227 229 231 231 231 231 232 232 233 235 237 240 241 242 242 243 246 247 248 249 251 251 252 252 253 254 255 255 256 256 258 260 261 263 264 265 266 266 268 269 270 271 271 271 272 272 273 274 275 276 277 278 279 279 280 281 282 283 284 286 286 287 287 286 286 285 285 285 286
254 253 252 251 249 247 245 243 243 242 241 238 236 234 231 228 226 226 228 230 231 232 233 233 233 234 236 237 239 242 242 243 245 247 247 249 251 251 251 252 252 252 253 253 254 255 257 258 259 261 262 262 263 264 265 266 268 269 269 270 271 272 273 274 275 276 276 277 278 279 280 281 282 283 284 284 285 285 285 286 286 286 286 287 289
253 253 252 251 250 248 247 245 244 243 242 240 239 237 236 233 229 226 226 227 229 230 232 234 234 234 235 236 237 240 243 244 245 247 247 248 250 250 250 250 251 251 252 253 255 256 258 259 260 261 261 262 264 265 266 266 267 268 269 270 271 272 273 274 274 275 275 276 277 278 279 280 281 282 283 284 284 285 286 287 288 288 288 289 290
253 252 252 251 250 249 248 246 245 245 244 242 240 239 238 237 233 229 226 226 227 228 229 232 234 235 234 235 236 238 241 243 244 245 247 249 250 250 250 250 250 252 253 255 257 258 259 261 262 263 264 264 265 265 266 266 266 267 268 269 270 271 272 272 273 274 275 276 277 278 279 280 281 282 283 284 285 286 288 288 289 289 290 290 291
257 255 254 253 252 250 249 247 247 246 245 244 242 240 239 238 237 234 230 227 227 229 230 231 234 235 235 235 236 238 240 242 242 242 243 246 247 247 247 247 248 251 253 254 256 257 258 260 261 262 263 264 264 264 263 264 265 266 267 268 269 270 271 272 274 275 276 277 277 278 278 279 280 282 283 284 286 287 288 288 289 289 290 291 292
260 258 257 255 254 252 251 249 247 246 246 245 244 242 240 239 238 237 235 231 228 230 233 234 234 235 237 237 238 239 240 241 242 242 242 242 243 244 245 246 247 249 251 252 253 254 256 257 258 259 260 261 263 263 263 263 264 265 267 269 270 272 274 276 277 278 278 278 278 278 278 279 280 281 282 283 285 286 287 288 289 290 291 292 293
261 259 258 257 255 254 253 251 249 247 246 245 245 243 242 240 239 238 237 235 232 231 234 237 238 237 238 240 241 241 241 242 243 244 244 244 244 245 246 247 247 248 250 253 254 254 256 257 258 259 259 259 261 262 263 263 263 265 268 270 272 274 276 277 278 278 277 278 277 277 278 279 280 281 283 284 286 287 288 288 289 291 292 294 296
261 260 259 258 256 255 254 252 251 249 247 246 245 244 243 242 240 239 237 237 235 234 234 237 240 240 240 241 242 244 244 244 244 245 246 246 246 247 248 248 248 248 250 253 254 255 257 258 258 258 258 258 259 261 262 263 264 266 269 271 273 274 275 276 276 276 276 276 276 277 278 279 281 282 284 285 286 287 288 289 290 292 294 296 298
262 260 259 258 257 256 255 253 252 251 249 247 246 245 244 242 241 240 239 237 236 235 235 236 239 241 241 242 243 245 246 246 246 247 247 247 247 247 248 249 249 250 251 252 253 254 256 257 258 257 257 258 259 260 262 264 265 267 268 270 272 273 274 275 275 275 275 276 276 277 278 279 281 282 283 284 285 287 288 290 292 293 295 296 297
263 262 260 259 257 256 255 253 252 252 251 250 247 246 245 244 242 241 240 239 238 237 236 236 237 240 242 243 244 245 246 247 247 248 248 248 249 249 249 249 250 250 250 251 251 252 253 255 257 257 258 258 259 260 262 264 266 268 269 271 272 273 274 274 274 275 276 276 277 278 279 281 282 283 284 285 286 288 289 291 292 294 295 295 296
264 263 262 261 259 257 255 254 253 251 251 251 250 248 247 245 243 241 240 240 240 239 237 236 236 238 240 242 243 245 246 247 247 248 249 249 250 250 250 250 250 250 250 251 251 252 252 254 255 257 258 259 260 261 262 264 266 268 270 271 272 273 274 274 275 275 276 277 278 279 281 282 283 284 285 286 287 289 290 291 292 293 293 294 295
266 265 264 262 260 259 257 256 254 252 251 250 250 250 248 247 245 243 240 239 240 240 239 238 237 237 238 240 242 243 245 246 247 248 248 249 250 250 251 251 251 251 251 250 251 251 252 253 254 255 257 258 260 261 262 263 265 267 268 270 271 272 273 274 275 275 277 278 278 280 281 282 283 284 285 286 287 288 289 290 290 291 292 293 294
267 266 264 263 261 259 258 257 255 254 252 251 250 250 250 249 247 245 242 240 239 240 240 240 239 238 238 238 239 241 242 244 245 246 247 248 249 249 250 251 251 251 251 250 250 251 252 252 253 254 255 257 258 259 260 262 263 264 266 267 269 271 272 273 274 275 276 277 278 279 280 281 282 283 284 285 286 287 288 288 289 290 291 292 293
271 269 266 264 262 260 258 257 256 255 254 252 250 250 250 249 248 247 245 242 240 240 240 240 240 240 239 239 239 239 240 242 243 244 245 246 247 248 249 249 250 250 251 250 250 250 251 252 252 253 254 255 256 257 259 260 261 262 263 265 266 268 270 271 272 273 274 275 277 278 279 280 281 282 283 284 285 285 286 287 288 289 290 292 294
272 270 269 267 265 263 260 258 256 255 254 253 251 250 249 249 249 248 246 244 243 241 240 240 240 241 241 240 240 239 239 240 241 242 243 244 245 246 247 248 249 249 250 250 250 250 251 251 252 253 254 255 256 257 257 258 259 260 261 263 264 266 267 269 270 271 273 274 275 277 278 279 280 281 282 283 284 285 286 287 288 289 291 292 294
276 273 270 267 266 265 263 260 258 256 254 253 252 250 249 249 248 248 246 245 244 244 243 242 241 241 241 241 241 241 240 240 240 241 242 243 244 245 246 246 247 248 249 249 250 250 250 251 252 252 253 254 255 256 257 258 259 260 261 262 264 265 266 267 269 270 271 273 274 275 276 277 278 280 281 282 284 285 286 287 288 289 290 291 293
278 276 273 270 267 264 263 262 260 258 256 254 252 251 250 249 248 247 247 245 245 244 244 244 244 243 242 242 242 242 242 241 241 241 242 242 243 244 245 246 246 247 248 248 249 250 250 251 251 252 253 254 255 256 256 257 258 259 260 262 263 264 265 267 268 269 270 272 273 274 275 276 277 279 280 281 283 284 285 286 287 288 289 290 291
279 277 275 273 270 267 264 262 261 260 258 257 254 252 251 250 249 248 247 246 245 244 244 244 244 244 244 243 243 242 242 242 242 242 242 242 243 243 244 245 246 246 247 248 248 249 250 250 251 252 253 254 254 255 256 257 258 259 260 261 263 264 265 266 267 269 270 271 272 273 274 275 276 278 279 280 282 283 284 285 286 287 288 289 290
281 279 277 275 273 270 267 264 261 259 258 258 256 255 253 251 250 249 248 247 246 245 244 244 244 244 244 244 244 244 243 243 243 243 243 243 243 244 244 245 245 246 246 247 247 248 249 250 251 252 254 255 255 256 256 257 258 259 260 261 262 263 265 266 267 268 269 270 271 272 273 275 276 277 279 280 281 282 283 284 285 286 287 288 289
284 282 281 279 276 274 271 267 263 260 258 257 256 256 255 254 252 251 249 249 248 246 245 244 244 243 243 244 244 244 244 244 244 244 244 244 244 244 245 245 245 246 246 247 247 247 248 249 250 251 253 254 256 257 257 258 258 259 260 260 261 263 264 265 267 268 269 270 271 272 273 275 276 277 278 279 280 282 283 283 284 285 286 287 288
287 285 283 282 280 278 275 272 268 264 260 258 256 256 255 254 254 253 251 250 249 248 247 246 244 243 243 243 243 243 244 244 244 245 245 245 245 245 245 246 246 246 246 247 247 247 248 248 249 250 251 252 254 255 257 258 259 260 260 261 262 263 264 265 266 267 269 270 271 272 273 274 275 276 278 279 280 281 282 283 284 285 286 287 288
291 289 286 284 282 280 278 276 274 270 265 261 258 256 255 254 254 253 253 252 250 249 248 247 246 244 243 242 242 242 243 243 244 244 245 246 246 246 246 246 246 247 247 247 248 248 248 248 249 250 251 252 253 254 255 257 258 259 260 261 262 263 264 265 266 267 268 269 271 272 273 274 275 276 277 278 279 280 281 282 283 284 285 286 287
295 292 290 287 285 283 281 278 277 274 271 267 263 259 257 255 254 253 253 252 252 251 250 248 247 246 245 244 243 242 242 242 243 243 244 245 246 246 247 247 247 247 247 248 249 249 249 249 250 250 251 252 253 254 255 256 257 258 259 260 261 262 263 264 265 267 268 269 270 271 272 273 274 275 276 277 278 279 280 281 282 283 285 286 287
300 298 295 292 289 286 284 282 279 277 274 272 269 265 261 258 255 254 253 252 251 251 251 250 249 248 246 245 244 244 243 243 242 243 243 244 245 246 247 247 248 248 248 249 249 250 250 251 251 251 252 253 254 254 255 256 257 258 258 259 260 261 262 264 265 266 267 268 269 270 271 272 273 274 275 276 278 279 280 281 282 284 285 286 288
305 303 300 297 294 291 288 285 283 280 277 275 272 270 267 263 259 255 254 252 252 251 251 251 251 250 249 247 246 245 245 244 244 243 243 244 244 245 246 246 247 248 249 249 250 250 251 251 252 252 253 254 255 255 256 257 258 258 259 260 261 262 263 264 265 266 267 268 269 270 271 272 274 275 276 277 278 279 280 282 283 284 285 287 288
308 306 304 301 298 295 291 288 286 284 282 279 276 273 270 268 264 260 257 254 253 252 251 251 251 251 251 250 249 248 247 246 245 245 244 244 245 245 245 246 246 247 248 249 250 251 251 252 252 253 254 254 255 256 257 258 258 259 260 261 262 263 264 265 266 267 268 269 270 271 272 273 274 275 276 278 279 280 281 282 284 285 286 287 288
310 308 306 304 301 298 295 292 289 286 284 282 280 277 274 271 268 266 262 259 256 254 252 252 251 251 251 251 251 250 249 248 248 247 246 246 246 246 246 246 247 247 248 248 249 250 251 252 253 253 254 255 255 256 257 258 259 259 260 261 262 263 264 265 266 267 268 269 270 271 272 274 275 276 277 278 279 280 282 283 284 285 286 288 289
313 311 309 307 304 301 298 295 292 289 287 284 283 281 279 276 272 269 266 263 260 257 255 253 252 252 252 251 251 251 251 251 250 249 248 248 248 248 248 248 248 248 248 249 249 250 251 252 253 254 254 255 256 257 257 258 259 260 261 261 262 263 264 265 266 267 268 270 271 272 273 274 275 276 277 278 279 281 282 283 285 286 287 288 289
315 314 312 310 307 305 302 298 295 293 290 288 285 283 281 279 277 273 270 267 264 262 259 256 253 252 252 251 251 251 251 251 251 251 251 250 249 249 249 249 249 249 250 250 250 250 251 252 252 253 254 255 256 257 258 259 260 260 261 262 263 264 265 266 267 268 269 270 271 272 273 275 276 277 278 279 280 282 283 284 285 286 287 288 290
318 316 314 312 310 308 305 302 299 296 293 291 289 286 284 282 279 277 274 271 268 265 262 259 256 254 253 252 252 251 251 250 250 250 251 251 251 251 250 250 250 251 251 251 251 252 252 253 253 254 254 255 256 257 258 259 260 261 262 263 264 265 265 267 268 269 270 271 272 273 275 276 277 278 279 280 281 282 283 284 285 286 287 288 289
Height
10584 10585 10588 10592 10598 10603 10608 10611 10616 10620 10625 10626 10625 10627 10631 10634 10637 10639 10641 10644 10646 10648 10650 10652 10654 10655 10657 10658 10659 10660 10661 10662 10663 10664 10665 10665 10666 10667 10668 10668 10669 10670 10671 10671 10672 10674 10674 10674 10675 10675 10675 10675 10675 10675 10675 10675 10675 10675 10676 10675 10674 10673 10671 10670 10669 10669 10668 10668 10667 10666 10664 10663 10662 10661 10661 10660 10659 10657 10656 10655 10655 10654 10653 10651 10650
10575 10576 10578 10583 10588 10593 10598 10603 10608 10614 10618 10619 10620 10622 10624 10628 10631 10634 10636 10638 10640 10642 10644 10646 10647 10649 10651 10652 10654 10656 10657 10658 10659 10659 10661 10662 10662 10663 10663 10664 10664 10665 10666 10667 10668 10669 10670 10670 10671 10671 10671 10671 10671 10671 10670 10670 10671 10671 10671 10671 10670 10669 10667 10666 10665 10665 10664 10663 10663 10662 10660 10659 10658 10657 10657 10656 10655 10654 10653 10652 10651 10651 10650 10648 10647
10568 10569 10571 10574 10579 10584 10589 10595 10601 10606 10610 10612 10614 10616 10618 10622 10625 10628 10631 10633 10635 10636 10638 10640 10641 10643 10645 10646 10648 10650 10652 10654 10654 10655 10657 10658 10658 10658 10659 10659 10659 10660 10661 10663 10664 10665 10665 10666 10666 10666 10667 10667 10667 10667 10666 10666 10666 10667 10667 10667 10666 10665 10663 10662 10661 10661 10660 10659 10658 10657 10656 10655 10654 10653 10653 10652 10651 10651 10650 10649 10648 10647 10646 10645 10644
10562 10563 10565 10568 10572 10576 10581 10587 10593 10598 10602 10605 10608 10610 10613 10616 10619 10622 10625 10628 10630 10631 10633 10634 10636 10638 10639 10641 10643 10645 10646 10648 10649 10651 10652 10653 10654 10654 10655 10655 10655 10655 10657 10658 10659 10659 10660 10661 10662 10662 10662 10663 10663 10663 10662 10662 10662 10662 10662 10662 10662 10661 10659 10658 10657 10657 10656 10655 10654 10652 10651 10651 10650 10649 10649 10648 10647 10647 10646 10645 10644 10643 10642 10641 10640
10558 10559 10560 10562 10565 10569 10574 10579 10585 10590 10594 10598 10602 10605 10608 10610 10613 10616 10620 10622 10624 10626 10628 10629 10631 10633 10635 10636 10638 10639 10641 10643 10644 10646 10648 10649 10649 10650 10650 10651 10651 10652 10653 10653 10653 10654 10655 10656 10656 10656 10657 10657 10658 10658 10657 10657 10657 10657 10658 10658 10657 10656 10655 10654 10653 10652 10651 10650 10649 10648 10647 10647 10646 10645 10644 10644 10643 10643 10642 10641 10640 10639 10639 10638 10637
10554 10555 10556 10558 10560 10563 10567 10572 10577 10582 10587 10591 10596 10599 10602 10604 10607 10610 10614 10616 10618 10620 10622 10624 10626 10628 10630 10632 10633 10634 10636 10637 10639 10641 10643 10643 10644 10644 10645 10646 10647 10647 10647 10647 10647 10649 10649 10650 10650 10651 10652 10652 10652 10652 10652 10652 10652 10652 10652 10652 10652 10652 10651 10650 10649 10647 10647 10646 10645 10644 10643 10642 10642 10640 10639 10639 10639 10638 10637 10636 10635 10635 10634 10634 10632
10551 10551 10552 10554 10556 10558 10562 10566 10570 10575 10579 10584 10589 10592 10595 10598 10601 10604 10608 10611 10613 10615 10617 10619 10621 10623 10625 10627 10628 10630 10631 10632 10633 10635 10637 10638 10637 10638 10639 10641 10642 10642 10642 10641 10642 10643 10644 10645 10645 10646 10646 10647 10647 10647 10647 10647 10647 10648 10648 10648 10648 10647 10647 10646 10644 10643 10642 10641 10640 10639 10638 10638 10637 10636 10635 10634 10634 10633 10632 10632 10631 10630 10630 10629 10627
10548 10548 10549 10551 10552 10555 10558 10561 10564 10569 10573 10577 10582 10586 10589 10593 10596 10599 10602 10605 10608 10611 10613 10615 10616 10618 10619 10621 10623 10624 10626 10627 10628 10629 10631 10631 10631 10632 10634 10635 10636 10636 10636 10636 10637 10638 10639 10640 10640 10641 10641 10641 10642 10642 10643 10643 10643 10643 10643 10643 10643 10643 10642 10641 10640 10639 10638 10636 10636 10634 10634 10633 10632 10631 10630 10630 10629 10628 10628 10627 10626 10625 10624 10624 10622
10545 10546 10546 10548 10549 10551 10554 10557 10560 10564 10567 10571 10576 10581 10584 10587 10591 10594 10597 10600 10603 10606 10608 10609 10611 10612 10614 10616 10617 10619 10620 10621 10622 10623 10625 10625 10625 10626 10628 10630 10630 10630 10630 10631 10632 10633 10634 10635 10635 10635 10635 10636 10636 10637 10637 10638 10638 10638 10638 10638 10638 10637 10637 10637 10636 10634 10633 10632 10631 10629 10628 10628 10627 10626 10627 10626 10625 10624 10623 10623 10621 10620 10619 10618 10618
10542 10543 10544 10545 10547 10549 10551 10554 10557 10560 10563 10566 10571 10575 10579 10583 10586 10589 10592 10594 10598 10601 10603 10605 10606 10607 10608 10610 10612 10613 10614 10615 10616 10618 10619 10619 10619 10621 10623 10623 10624 10624 10625 10626 10627 10628 10629 10629 10629 10630 10630 10630 10631 10631 10632 10632 10632 10632 10632 10632 10632 10632 10631 10631 10631 10630 10628 10627 10626 10623 10621 10622 10622 10622 10622 10621 10620 10619 10618 10617 10616 10615 10614 10613 10613
10539 10540 10541 10542 10543 10545 10547 10550 10553 10556 10558 10562 10566 10570 10574 10577 10580 10583 10586 10588 10592 10595 10598 10600 10601 10602 10603 10604 10605 10607 10608 10609 10611 10612 10613 10613 10613 10615 10616 10617 10617 10619 10620 10621 10622 10623 10623 10623 10623 10624 10624 10624 10625 10625 10626 10626 10626 10626 10626 10626 10626 10626 10625 10625 10625 10625 10624 10622 10621 10617 10614 10616 10618 10617 10616 10616 10615 10614 10613 10611 10610 10609 10608 10607 10607
10534 10536 10537 10538 10539 10541 10543 10546 10549 10551 10554 10557 10560 10564 10568 10572 10575 10578 10580 10582 10586 10589 10591 10593 10595 10596 10597 10598 10599 10600 10601 10603 10605 10606 10607 10608 10608 10608 10610 10610 10612 10613 10614 10616 10617 10617 10617 10617 10617 10618 10618 10618 10618 10619 10619 10619 10619 10620 10619 10620 10619 10619 10619 10619 10619 10620 10618 10617 10615 10611 10609 10612 10613 10611 10610 10610 10609 10608 10607 10606 10605 10603 10601 10600 10600
10529 10531 10532 10534 10535 10537 10539 10541 10544 10546 10549 10552 10555 10558 10562 10566 10569 10572 10574 10577 10579 10582 10584 10586 10589 10590 10590 10590 10592 10594 10595 10596 10598 10600 10601 10602 10602 10603 10603 10604 10606 10607 10609 10610 10610 10611 10611 10611 10611 10611 10611 10611 10611 10611 10612 10612 10612 10613 10613 10613 10612 10612 10613 10613 10613 10613 10612 10612 10609 10605 10604 10607 10607 10605 10603 10604 10604 10602 10601 10600 10599 10597 10595 10594 10593
10523 10525 10527 10529 10531 10532 10534 10537 10539 10541 10544 10547 10549 10553 10556 10560 10563 10566 10568 10571 10573 10575 10578 10580 10582 10584 10583 10583 10585 10588 10589 10590 10592 10593 10595 10596 10596 10597 10597 10598 10600 10601 10602 10603 10603 10604 10604 10604 10604 10604 10604 10604 10604 10604 10604 10605 10605 10606 10606 10606 10606 10606 10606 10606 10606 10606 10605 10605 10603 10601 10600 10601 10601 10599 10597 10597 10597 10596 10595 10594 10592 10590 10588 10587 10586
10518 10520 10522 10524 10526 10528 10530 10532 10534 10536 10538 10541 10544 10547 10550 10553 10556 10559 10562 10565 10567 10569 10571 10574 10576 10578 10577 10577 10579 10582 10583 10584 10586 10587 10588 10589 10590 10590 10590 10591 10593 10594 10595 10596 10596 10596 10596 10596 10596 10597 10597 10596 10596 10596 10597 10597 10598 10598 10598 10598 10599 10599 10599 10599 10599 10599 10598 10597 10597 10596 10596 10594 10593 10593 10592 10590 10590 10588 10588 10587 10585 10583 10582 10580 10578
10512 10514 10515 10518 10520 10522 10524 10526 10528 10530 10532 10534 10537 10540 10543 10546 10549 10552 10555 10558 10561 10563 10565 10567 10569 10571 10571 10571 10573 10575 10575 10576 10579 10581 10582 10582 10582 10583 10583 10584 10586 10588 10588 10588 10588 10588 10589 10589 10589 10589 10589 10589 10588 10589 10589 10589 10590 10590 10590 10591 10591 10591 10591 10591 10591 10591 10590 10590 10590 10590 10590 10589 10587 10586 10585 10584 10582 10581 10581 10580 10578 10576 10574 10573 10571
10505 10507 10509 10511 10513 10516 10518 10520 10522 10524 10526 10528 10530 10533 10536 10539 10542 10545 10548 10551 10555 10557 10559 10561 10562 10563 10564 10565 10566 10567 10568 10569 10571 10573 10575 10575 10575 10575 10576 10577 10578 10580 10580 10580 10580 10580 10581 10582 10582 10581 10581 10581 10581 10581 10581 10582 10582 10583 10583 10583 10583 10583 10584 10583 10583 10583 10582 10582 10582 10582 10582 10581 10580 10579 10578 10576 10574 10573 10573 10572 10570 10568 10567 10565 10564
10498 10500 10502 10504 10506 10508 10511 10513 10515 10517 10519 10521 10523 10526 10529 10531 10534 10537 10541 10544 10547 10550 10552 10554 10555 10557 10558 10559 10559 10560 10561 10562 10563 10565 10567 10567 10567 10568 10569 10570 10571 10572 10573 10572 10571 10572 10573 10574 10575 10574 10574 10573 10573 10573 10573 10574 10574 10575 10575 10575 10575 10575 10576 10576 10575 10575 10574 10574 10573 10573 10573 10572 10572 10571 10570 10569 10566 10564 10564 10564 10563 10561 10559 10557 10556
10492 10493 10494 10496 10498 10500 10503 10505 10508 10510 10512 10514 10516 10518 10521 10524 10526 10530 10533 10536 10539 10542 10545 10546 10549 10551 10552 10552 10553 10553 10554 10554 10556 10557 10558 10559 10559 10560 10561 10562 10563 10564 10565 10565 10564 10563 10563 10565 10566 10566 10566 10566 10565 10565 10565 10566 10566 10567 10567 10567 10567 10567 10568 10567 10567 10567 10567 10566 10565 10564 10564 10563 10563 10562 10561 10561 10559 10557 10555 10555 10554 10553 10551 10550 10548
10485 10485 10487 10489 10491 10493 10495 10497 10499 10503 10505 10507 10509 10511 10513 10516 10519 10522 10525 10528 10531 10535 10537 10539 10542 10544 10545 10546 10547 10547 10547 10547 10547 10548 10550 10550 10550 10552 10553 10554 10555 10556 10556 10557 10556 10556 10555 10555 10556 10556 10557 10557 10557 10556 10556 10557 10558 10558 10559 10559 10559 10559 10559 10559 10559 10558 10558 10558 10557 10556 10555 10554 10553 10553 10552 10552 10551 10550 10548 10547 10546 10544 10543 10541 10539
10477 10478 10479 10481 10483 10485 10487 10488 10490 10494 10497 10499 10500 10503 10505 10508 10511 10514 10517 10520 10524 10527 10530 10532 10535 10537 10538 10539 10539 10539 10540 10539 10537 10539 10542 10541 10541 10544 10546 10545 10545 10546 10547 10548 10548 10548 10548 10547 10547 10547 10547 10548 10549 10548 10548 10548 10549 10550 10550 10550 10550 10551 10551 10551 10551 10550 10549 10549 10548 10547 10547 10545 10544 10543 10543 10543 10542 10542 10540 10539 10537 10536 10534 10532 10531
10470 10470 10471 10473 10475 10477 10479 10480 10481 10484 10488 10490 10492 10495 10497 10500 10503 10506 10508 10512 10515 10518 10522 10524 10526 10529 10530 10531 10530 10530 10532 10531 10529 10530 10533 10532 10532 10537 10537 10535 10536 10538 10538 10538 10538 10538 10539 10539 10538 10538 10538 10539 10540 10540 10540 10540 10540 10541 10541 10541 10541 10542 10542 10542 10542 10541 10540 10540 10539 10538 10538 10536 10535 10535 10534 10534 10534 10533 10532 10531 10529 10528 10526 10524 10522
10461 10461 10462 10464 10465 10467 10469 10471 10472 10474 10477 10481 10484 10486 10489 10492 10495 10497 10500 10504 10507 10510 10513 10515 10517 10519 10521 10522 10521 10521 10522 10523 10521 10522 10524 10523 10525 10528 10528 10526 10528 10530 10528 10528 10528 10529 10529 10529 10529 10529 10529 10529 10530 10532 10532 10531 10531 10532 10532 10532 10532 10532 10532 10533 10532 10532 10531 10530 10529 10529 10528 10527 10526 10526 10526 10526 10525 10524 10523 10521 10520 10518 10516 10514 10512
10453 10453 10453 10454 10456 10457 10459 10461 10462 10464 10466 10470 10473 10476 10479 10483 10486 10489 10492 10495 10498 10501 10503 10505 10505 10507 10510 10511 10512 10512 10513 10515 10514 10513 10514 10515 10516 10518 10518 10518 10519 10519 10518 10518 10519 10519 10519 10519 10520 10520 10520 10520 10521 10522 10523 10523 10523 10523 10522 10522 10523 10523 10523 10523 10523 10523 10522 10521 10520 10519 10518 10517 10516 10516 10516 10516 10515 10513 10512 10511 10510 10508 10506 10504 10502
10444 10444 10444 10445 10446 10447 10449 10451 10452 10454 10456 10458 10462 10466 10469 10473 10476 10480 10483 10486 10489 10491 10493 10493 10493 10495 10498 10501 10503 10504 10504 10506 10506 10505 10506 10507 10508 10509 10509 10509 10509 10509 10509 10509 10509 10509 10509 10509 10509 10509 10510 10511 10512 10513 10513 10513 10513 10513 10513 10513 10513 10513 10513 10514 10514 10513 10513 10512 10510 10509 10508 10507 10506 10506 10505 10505 10503 10502 10501 10500 10499 10498 10496 10494 10492
10434 10435 10435 10436 10437 10438 10439 10441 10442 10443 10445 10447 10450 10454 10458 10462 10465 10469 10473 10477 10479 10481 10482 10482 10482 10485 10489 10492 10494 10495 10496 10497 10497 10497 10498 10498 10498 10498 10499 10500 10500 10499 10499 10499 10499 10499 10500 10499 10500 10500 10501 10501 10503 10504 10505 10504 10503 10503 10502 10502 10503 10503 10503 10504 10503 10503 10503 10502 10501 10499 10498 10496 10495 10495 10494 10493 10493 10492 10491 10490 10489 10488 10486 10484 10481
10423 10424 10425 10426 10427 10428 10429 10431 10432 10433 10434 10436 10439 10443 10447 10450 10454 10458 10462 10466 10469 10471 10471 10472 10473 10476 10479 10482 10484 10485 10487 10488 10488 10488 10489 10489 10487 10487 10488 10490 10490 10489 10489 10489 10489 10489 10490 10490 10491 10491 10492 10493 10493 10494 10496 10495 10494 10492 10491 10492 10492 10492 10492 10492 10491 10491 10491 10490 10490 10488 10486 10486 10485 10485 10484 10484 10483 10483 10481 10480 10478 10477 10475 10473 10470
10412 10413 10414 10415 10417 10418 10419 10420 10421 10422 10423 10425 10427 10431 10435 10438 10441 10445 10449 10453 10457 10459 10461 10461 10463 10466 10470 10472 10474 10475 10476 10477 10478 10479 10479 10479 10478 10477 10478 10479 10480 10479 10478 10478 10478 10478 10479 10481 10482 10482 10484 10485 10485 10484 10485 10485 10483 10482 10481 10482 10482 10482 10482 10481 10481 10480 10480 10480 10479 10477 10476 10475 10475 10475 10475 10474 10474 10472 10471 10468 10466 10464 10462 10460 10457
10400 10402 10403 10404 10405 10406 10408 10409 10410 10411 10412 10414 10416 10419 10422 10425 10428 10432 10436 10440 10443 10447 10449 10450 10452 10455 10458 10461 10463 10464 10466 10467 10468 10469 10469 10469 10469 10469 10468 10469 10470 10469 10469 10469 10469 10468 10468 10471 10474 10475 10475 10476 10477 10475 10474 10473 10473 10472 10473 10473 10473 10473 10473 10473 10472 10472 10472 10471 10470 10468 10466 10466 10466 10466 10465 10464 10463 10461 10459 10457 10454 10452 10449 10445 10442
10387 10388 10390 10392 10393 10394 10395 10397 10398 10399 10400 10403 10405 10407 10409 10412 10415 10419 10422 10426 10430 10434 10437 10439 10441 10443 10447 10450 10452 10454 10455 10456 10457 10458 10459 10460 10460 10459 10459 10459 10460 10461 10461 10461 10462 10461 10460 10461 10464 10465 10466 10467 10468 10467 10465 10463 10463 10463 10463 10464 10464 10464 10464 10464 10463 10462 10462 10461 10460 10458 10457 10457 10457 10457 10456 10454 10452 10450 10447 10444 10442 10439 10436 10433 10430
10374 10375 10376 10378 10380 10380 10381 10383 10385 10387 10388 10390 10393 10395 10396 10398 10402 10405 10408 10412 10416 10420 10424 10427 10429 10432 10435 10437 10440 10442 10443 10445 10446 10447 10449 10449 10450 10450 10450 10450 10451 10452 10453 10453 10454 10454 10453 10452 10453 10455 10456 10457 10458 10458 10456 10455 10454 10453 10453 10454 10454 10454 10454 10453 10453 10452 10451 10450 10449 10448 10447 10446 10446 10445 10444 10442 10440 10437 10434 10432 10429 10426 10424 10421 10419
10363 10363 10364 10365 10367 10367 10368 10369 10371 10373 10375 10377 10379 10382 10384 10386 10389 10392 10396 10399 10402 10406 10410 10413 10417 10419 10422 10425 10427 10429 10431 10433 10434 10436 10437 10438 10439 10439 10440 10441 10442 10442 10443 10444 10445 10445 10445 10445 10445 10445 10446 10447 10447 10448 10447 10445 10445 10444 10443 10443 10443 10443 10442 10442 10441 10440 10439 10437 10436 10435 10434 10433 10433 10431 10430 10428 10426 10424 10422 10419 10417 10414 10412 10410 10408
10352 10352 10352 10353 10354 10354 10355 10355 10357 10359 10361 10363 10365 10368 10371 10374 10377 10379 10383 10386 10388 10392 10396 10400 10403 10407 10410 10412 10414 10417 10419 10421 10422 10424 10425 10426 10427 10428 10430 10431 10432 10433 10434 10435 10435 10435 10436 10436 10436 10436 10437 10437 10437 10437 10437 10436 10436 10435 10435 10434 10433 10432 10431 10430 10429 10428 10427 10425 10424 10423 10422 10421 10420 10419 10417 10416 10414 10412 10410 10408 10406 10403 10401 10399 10397
10342 10341 10341 10341 10342 10342 10343 10343 10344 10346 10348 10350 10352 10354 10357 10360 10363 10366 10370 10373 10376 10379 10383 10386 10390 10393 10396 10398 10401 10404 10406 10408 10410 10411 10413 10414 10415 10417 10418 10420 10421 10423 10424 10425 10426 10426 10426 10427 10427 10427 10428 10428 10428 10428 10428 10427 10427 10427 10426 10425 10424 10422 10421 10420 10419 10417 10416 10414 10413 10412 10411 10410 10409 10407 10406 10405 10403 10401 10399 10397 10395 10393 10391 10388 10386
10332 10331 10330 10330 10331 10331 10332 10332 10333 10334 10335 10338 10340 10342 10344 10347 10350 10353 10357 10360 10363 10366 10370 10373 10376 10379 10382 10385 10387 10390 10393 10395 10397 10399 10400 10402 10403 10405 10407 10408 10410 10412 10413 10414 10415 10416 10416 10417 10417 10418 10418 10418 10418 10419 10419 10418 10418 10418 10417 10416 10415 10413 10412 10410 10408 10407 10405 10404 10403 10402 10401 10400 10398 10397 10395 10394 10392 10390 10388 10386 10384 10382 10379 10377 10374
10322 10321 10321 10320 10320 10320 10321 10322 10322 10323 10324 10326 10328 10330 10332 10334 10337 10340 10344 10347 10350 10353 10357 10359 10362 10365 10368 10371 10374 10377 10380 10382 10384 10386 10387 10389 10391 10393 10395 10397 10398 10400 10402 10403 10404 10405 10406 10406 10406 10407 10407 10408 10408 10408 10409 10409 10409 10409 10408 10407 10406 10404 10403 10401 10399 10397 10396 10395 10394 10393 10391 10390 10388 10386 10385 10383 10381 10379 10377 10375 10373 10370 10367 10365 10362
10312 10311 10311 10311 10310 10310 10310 10311 10312 10312 10313 10315 10316 10318 10320 10322 10324 10327 10331 10334 10337 10340 10343 10346 10349 10352 10354 10357 10360 10364 10366 10369 10371 10373 10375 10377 10379 10381 10383 10385 10387 10388 10390 10391 10392 10394 10394 10394 10395 10395 10396 10397 10397 10398 10398 10399 10399 10399 10398 10397 10396 10395 10393 10391 10390 10388 10387 10386 10384 10383 10381 10380 10378 10376 10374 10372 10369 10367 10365 10363 10361 10358 10356 10354 10351
10303 10302 10301 10301 10301 10300 10300 10300 10301 10302 10303 10304 10305 10306 10308 10310 10312 10314 10318 10321 10324 10327 10329 10332 10336 10339 10341 10344 10347 10350 10353 10355 10358 10360 10362 10364 10366 10369 10371 10373 10375 10376 10378 10379 10380 10381 10382 10382 10382 10383 10384 10385 10386 10387 10387 10388 10388 10388 10387 10386 10385 10384 10382 10381 10380 10379 10377 10376 10375 10373 10371 10370 10368 10366 10364 10361 10359 10357 10355 10353 10350 10348 10346 10344 10341
10294 10293 10292 10291 10291 10291 10291 10291 10292 10293 10293 10294 10294 10295 10297 10298 10300 10302 10305 10308 10312 10314 10317 10319 10322 10325 10328 10330 10333 10337 10340 10342 10344 10346 10349 10351 10354 10356 10358 10360 10362 10364 10366 10367 10368 10369 10370 10370 10370 10371 10371 10373 10374 10374 10375 10375 10376 10376 10376 10375 10374 10373 10371 10370 10369 10368 10367 10365 10364 10362 10361 10359 10357 10355 10353 10351 10349 10347 10345 10343 10340 10338 10336 10333 10331
10285 10284 10283 10282 10282 10282 10282 10282 10283 10284 10284 10284 10284 10284 10286 10287 10289 10290 10293 10296 10299 10302 10304 10307 10310 10313 10315 10318 10320 10323 10326 10328 10330 10332 10335 10338 10340 10343 10345 10348 10350 10352 10353 10355 10356 10357 10359 10359 10359 10359 10359 10360 10361 10362 10363 10363 10364 10364 10364 10363 10362 10361 10360 10358 10357 10356 10354 10353 10352 10351 10349 10348 10346 10344 10342 10340 10339 10337 10334 10332 10330 10328 10325 10323 10320
10277 10276 10275 10274 10273 10272 10272 10273 10274 10275 10275 10274 10274 10274 10275 10276 10278 10280 10281 10284 10286 10289 10291 10294 10297 10300 10303 10305 10307 10309 10312 10314 10317 10319 10321 10324 10327 10329 10332 10335 10337 10339 10341 10342 10343 10345 10346 10347 10348 10348 10348 10348 10349 10349 10350 10351 10351 10351 10351 10351 10350 10349 10348 10346 10345 10343 10342 10341 10340 10339 10337 10336 10334 10333 10331 10329 10328 10326 10324 10321 10319 10317 10314 10311 10308
10270 10268 10267 10265 10264 10263 10263 10263 10263 10265 10265 10265 10264 10264 10265 10266 10267 10268 10270 10272 10273 10276 10278 10281 10284 10287 10290 10292 10294 10296 10298 10300 10303 10305 10307 10309 10313 10316 10318 10321 10324 10326 10327 10329 10330 10331 10333 10335 10336 10336 10337 10337 10337 10337 10337 10338 10338 10338 10338 10338 10337 10337 10335 10334 10333 10331 10330 10329 10328 10327 10326 10324 10323 10321 10320 10318 10317 10315 10313 10310 10308 10305 10303 10299 10296
10262 10260 10259 10258 10256 10255 10254 10253 10253 10254 10255 10256 10255 10255 10255 10256 10257 10258 10258 10260 10261 10263 10265 10267 10270 10273 10277 10279 10282 10283 10285 10287 10289 10291 10293 10295 10299 10302 10305 10308 10310 10312 10314 10315 10317 10318 10320 10321 10322 10323 10324 10325 10325 10326 10326 10326 10326 10326 10325 10325 10324 10324 10323 10322 10321 10319 10318 10317 10316 10315 10314 10313 10312 10310 10308 10307 10305 10303 10301 10299 10296 10294 10291 10288 10285
10255 10253 10251 10250 10248 10247 10245 10244 10244 10244 10244 10245 10246 10246 10246 10246 10247 10247 10248 10248 10249 10251 10252 10254 10257 10260 10263 10266 10268 10270 10271 10273 10276 10278 10279 10281 10284 10288 10291 10294 10296 10298 10300 10302 10303 10305 10307 10308 10309 10310 10311 10311 10312 10313 10313 10313 10313 10313 10313 10313 10312 10311 10311 10310 10309 10307 10306 10305 10304 10303 10302 10301 10300 10299 10297 10295 10293 10292 10290 10287 10285 10282 10279 10276 10273
10248 10246 10244 10242 10241 10239 10237 10236 10235 10234 10234 10234 10235 10235 10236 10236 10237 10237 10237 10237 10238 10238 10240 10241 10244 10247 10250 10253 10255 10257 10258 10261 10263 10265 10267 10268 10271 10274 10277 10280 10282 10284 10286 10288 10290 10292 10293 10294 10295 10296 10297 10298 10298 10299 10299 10300 10300 10300 10300 10300 10299 10299 10298 10297 10296 10295 10294 10293 10293 10292 10291 10290 10288 10287 10285 10283 10281 10280 10278 10275 10273 10270 10268 10265 10262
10242 10240 10238 10235 10233 10231 10230 10228 10226 10225 10225 10225 10225 10225 10225 10226 10226 10227 10227 10227 10227 10227 10228 10229 10231 10233 10236 10239 10242 10244 10246 10248 10251 10253 10255 10256 10258 10260 10263 10265 10267 10269 10271 10273 10276 10277 10279 10280 10281 10282 10283 10284 10285 10285 10286 10286 10287 10287 10287 10286 10286 10285 10285 10284 10283 10282 10282 10281 10280 10279 10278 10277 10275 10274 10273 10271 10269 10267 10265 10263 10261 10258 10256 10253 10251
10236 10233 10231 10229 10227 10225 10222 10220 10219 10217 10216 10215 10215 10215 10215 10215 10216 10217 10217 10216 10216 10217 10218 10219 10220 10222 10224 10226 10229 10232 10234 10236 10238 10241 10243 10244 10245 10247 10250 10252 10254 10255 10257 10259 10261 10263 10265 10266 10267 10268 10269 10270 10271 10272 10273 10273 10273 10273 10273 10273 10272 10272 10271 10271 10270 10270 10269 10268 10267 10266 10265 10264 10262 10261 10260 10258 10256 10254 10252 10251 10249 10246 10244 10241 10238
10231 10228 10225 10223 10221 10219 10216 10214 10212 10210 10208 10207 10206 10205 10205 10206 10206 10206 10206 10206 10207 10207 10208 10209 10210 10212 10213 10215 10217 10219 10221 10223 10226 10228 10230 10232 10233 10235 10237 10239 10240 10242 10244 10245 10247 10249 10250 10252 10253 10254 10255 10256 10257 10258 10259 10260 10260 10260 10260 10260 10260 10259 10259 10258 10257 10257 10256 10255 10254 10253 10252 10251 10250 10248 10247 10246 10244 10241 10239 10238 10236 10234 10231 10229 10226
10226 10223 10219 10217 10215 10213 10210 10207 10205 10203 10201 10199 10198 10197 10196 10196 10197 10196 10196 10196 10196 10198 10199 10200 10201 10202 10203 10204 10206 10208 10209 10211 10213 10215 10218 10220 10221 10223 10225 10226 10227 10229 10231 10232 10234 10236 10237 10238 10239 10240 10241 10242 10243 10244 10245 10245 10246 10246 10246 10246 10246 10246 10246 10245 10244 10243 10243 10242 10241 10240 10239 10238 10237 10236 10234 10233 10231 10229 10227 10225 10223 10221 10219 10216 10214
10221 10218 10214 10211 10208 10206 10204 10202 10199 10196 10194 10192 10191 10189 10188 10188 10188 10187 10186 10186 10186 10187 10189 10190 10191 10192 10192 10193 10194 10196 10198 10199 10201 10203 10205 10207 10209 10210 10212 10213 10214 10215 10217 10220 10221 10223 10224 10225 10226 10227 10228 10229 10230 10230 10231 10231 10232 10232 10232 10232 10233 10232 10232 10231 10231 10230 10229 10229 10228 10227 10226 10225 10224 10223 10221 10220 10218 10216 10214 10212 10210 10208 10206 10204 10202
10217 10213 10210 10206 10203 10200 10198 10195 10193 10190 10188 10186 10184 10182 10181 10180 10179 10178 10177 10176 10176 10177 10178 10179 10181 10182 10182 10182 10183 10185 10186 10188 10190 10191 10193 10194 10196 10197 10199 10200 10201 10203 10205 10207 10208 10209 10211 10212 10213 10215 10215 10216 10216 10217 10217 10217 10218 10218 10218 10219 10219 10218 10218 10217 10217 10217 10216 10216 10215 10214 10213 10212 10211 10210 10208 10207 10205 10203 10201 10200 10198 10196 10194 10192 10190